Location: Hartford
(41.7640°N, 72.6860°W)
Time: 04:38:35
(UTC-04:00)

ISS - All Passes

Search period start: 21 April 2014 00:00
Search period end: 01 May 2014 00:00
Orbit: 414 x 419 km, 51.6° (Epoch: 21 April)

Date Brightness Start Highest point End Pass type
(mag) Time Alt. Az. Time Alt. Az. Time Alt. Az.
21 Apr - 14:12:38 10° SSW 14:15:33 29° SE 14:18:30 10° ENE daylight
21 Apr - 15:49:03 10° W 15:52:13 38° NNW 15:55:23 10° NE daylight
21 Apr - 17:27:27 10° NW 17:29:39 16° N 17:31:50 10° NNE daylight
21 Apr - 19:04:53 10° NNW 19:07:20 18° NNE 19:09:47 10° ENE daylight
21 Apr - 20:41:15 10° NW 20:44:35 62° NNE 20:47:54 10° ESE visible
21 Apr - 22:18:49 10° W 22:21:00 16° SW 22:23:10 10° S visible
22 Apr - 13:24:56 10° S 13:27:09 17° SE 13:29:23 10° E daylight
22 Apr - 15:00:16 10° WSW 15:03:34 59° NNW 15:06:53 10° NE daylight
22 Apr - 16:38:24 10° WNW 16:40:49 18° NNW 16:43:15 10° NNE daylight
22 Apr - 18:16:19 10° NNW 18:18:31 16° N 18:20:43 10° NE daylight
22 Apr - 19:52:44 10° NW 19:55:56 39° NNE 19:59:06 10° E daylight
22 Apr - 21:29:39 10° WNW 21:32:34 28° SW 21:35:28 10° SSE visible
23 Apr - 14:11:35 10° SW 14:14:55 82° SE 14:18:16 10° ENE daylight
23 Apr - 15:49:17 10° WNW 15:51:58 22° NNW 15:54:40 10° NE daylight
23 Apr - 17:27:33 10° NW 17:29:36 15° N 17:31:40 10° NE daylight
23 Apr - 19:04:12 10° NW 19:07:09 28° NNE 19:10:06 10° E daylight
23 Apr - 20:40:46 10° WNW 20:44:01 48° SW 20:47:15 10° SE visible
24 Apr - 13:23:04 10° SSW 13:26:16 45° SE 13:29:29 10° ENE daylight
24 Apr - 15:00:08 10° W 15:03:06 29° NNW 15:06:04 10° NE daylight
24 Apr - 16:38:34 10° NW 16:40:38 15° N 16:42:42 10° NE daylight
24 Apr - 18:15:36 10° NW 18:18:16 22° NNE 18:20:56 10° ENE daylight
24 Apr - 19:51:58 10° NW 19:55:20 86° SW 19:58:41 10° SE daylight
24 Apr - 21:31:15 10° WSW 21:31:32 10° SW 21:31:50 10° SW visible
25 Apr - 12:34:47 10° SSW 12:37:37 26° SE 12:40:27 10° ENE daylight
25 Apr - 14:11:02 10° W 14:14:13 41° NNW 14:17:24 10° NE daylight
25 Apr - 15:49:23 10° NW 15:51:36 16° N 15:53:49 10° NNE daylight
25 Apr - 17:26:53 10° NNW 17:29:16 18° NNE 17:31:39 10° ENE daylight
25 Apr - 19:03:14 10° NW 19:06:32 56° NNE 19:09:50 10° ESE daylight
25 Apr - 20:40:38 10° W 20:42:58 18° SW 20:45:18 10° S visible
26 Apr - 11:46:57 10° SSE 11:48:58 15° SE 11:50:58 10° E daylight
26 Apr - 13:22:01 10° WSW 13:25:19 65° NNW 13:28:39 10° NE daylight
26 Apr - 15:00:04 10° WNW 15:02:31 19° NNW 15:04:59 10° NNE daylight
26 Apr - 16:38:02 10° NNW 16:40:11 16° N 16:42:20 10° NE daylight
26 Apr - 18:14:28 10° NW 18:17:37 36° NNE 18:20:44 10° E daylight
26 Apr - 19:51:17 10° WNW 19:54:16 30° SW 19:57:15 10° SSE daylight
27 Apr - 12:33:07 10° SW 12:36:25 74° SE 12:39:46 10° ENE daylight
27 Apr - 14:10:41 10° WNW 14:13:25 23° NNW 14:16:10 10° NE daylight
27 Apr - 15:48:59 10° NW 15:51:01 15° N 15:53:03 10° NE daylight
27 Apr - 17:25:41 10° NW 17:28:34 26° NNE 17:31:27 10° E daylight
27 Apr - 19:02:11 10° WNW 19:05:27 54° SW 19:08:43 10° SE daylight
28 Apr - 11:44:24 10° SSW 11:47:32 40° SE 11:50:41 10° ENE daylight
28 Apr - 13:21:18 10° W 13:24:18 30° NNW 13:27:19 10° NE daylight
28 Apr - 14:59:43 10° NW 15:01:47 15° N 15:03:51 10° NE daylight
28 Apr - 16:36:49 10° NW 16:39:25 21° NNE 16:42:01 10° ENE daylight
28 Apr - 18:13:10 10° NW 18:16:30 85° NNE 18:19:51 10° SE daylight
28 Apr - 19:51:36 10° WSW 19:52:45 11° SW 19:53:53 10° SSW daylight
29 Apr - 10:55:57 10° S 10:58:38 23° SE 11:01:21 10° E daylight
29 Apr - 12:31:58 10° WSW 12:35:10 44° NNW 12:38:24 10° NE daylight
29 Apr - 14:10:15 10° NW 14:12:30 17° N 14:14:45 10° NNE daylight
29 Apr - 15:47:51 10° NNW 15:50:10 17° N 15:52:29 10° NE daylight
29 Apr - 17:24:10 10° NW 17:27:27 51° NNE 17:30:42 10° ESE daylight
29 Apr - 19:01:24 10° W 19:03:54 20° SW 19:06:25 10° S daylight
30 Apr - 10:08:04 10° SSE 10:09:45 13° SE 10:11:26 10° E daylight
30 Apr - 11:42:43 10° WSW 11:46:02 73° NW 11:49:22 10° NE daylight
30 Apr - 13:20:40 10° WNW 13:23:10 19° NNW 13:25:41 10° NE daylight
30 Apr - 14:58:43 10° NNW 15:00:49 16° N 15:02:55 10° NE daylight
30 Apr - 16:35:10 10° NW 16:38:15 33° NNE 16:41:19 10° E daylight
30 Apr - 18:11:53 10° WNW 18:14:57 34° SW 18:18:00 10° SSE daylight
